KC0VVH Weather Reports


Display with metric or nautical units.
time (UTC)temp
F
wind
direction
speed
MPH
gust
MPH
rain 1hr
in
rain 24hr
in
rain mn
in
humidity
%
barometer
mb
20260502214524 75 16 5.0 12.0 0.00 0.00 0.00 14 1017.9
20260502213603 75 20 4.0 12.0 0.00 0.00 0.00 14 1017.9
20260502212703 75 36 6.0 19.0 0.00 0.00 0.00 15 1017.9
20260502211803 76 9 5.0 12.0 0.00 0.00 0.00 15 1017.9
20260502210903 75 21 4.0 12.0 0.00 0.00 0.00 16 1017.9
20260502210003 74 54 5.0 12.0 0.00 0.00 0.00 16 1017.9
20260502205424 74 55 5.0 10.0 0.00 0.00 0.00 16 1017.9
20260502204503 75 19 2.0 9.0 0.00 0.00 0.00 16 1017.9
20260502203603 73 43 4.0 10.0 0.00 0.00 0.00 18 1017.9
20260502202724 73 44 5.0 10.0 0.00 0.00 0.00 19 1017.9
20260502201803 72 25 4.0 12.0 0.00 0.00 0.00 20 1017.9
20260502200903 72 44 3.0 8.0 0.00 0.00 0.00 19 1017.9
20260502200003 72 43 4.0 10.0 0.00 0.00 0.00 19 1017.9
20260502195403 71 46 4.0 11.0 0.00 0.00 0.00 19 1017.9
20260502194503 72 20 4.0 11.0 0.00 0.00 0.00 20 1017.9
20260502193624 71 24 3.0 11.0 0.00 0.00 0.00 20 1017.9
20260502192703 71 16 4.0 11.0 0.00 0.00 0.00 18 1017.9
20260502191803 71 14 3.0 10.0 0.00 0.00 0.00 19 1017.9
20260502190903 70 10 3.0 10.0 0.00 0.00 0.00 21 1017.9
20260502190003 70 9 3.0 9.0 0.00 0.00 0.00 21 1017.9
20260502185403 71 359 3.0 9.0 0.00 0.00 0.00 19 1017.9
20260502184503 70 26 4.0 10.0 0.00 0.00 0.00 21 1017.9
20260502183603 69 16 4.0 11.0 0.00 0.00 0.00 21 1017.9
20260502182703 69 42 4.0 10.0 0.00 0.00 0.00 22 1017.9
20260502181803 69 31 3.0 9.0 0.00 0.00 0.00 23 1017.9
20260502180903 68 24 3.0 11.0 0.00 0.00 0.00 23 1017.9
20260502163603 62 152 1.0 7.0 0.00 0.00 0.00 29 1017.9
20260502162703 61 163 1.0 7.0 0.00 0.00 0.00 30 1017.9
20260502161803 59 195 3.0 10.0 0.00 0.00 0.00 30 1017.9
20260502160903 59 196 2.0 12.0 0.00 0.00 0.00 31 1017.9
20260502151803 56 180 5.0 13.0 0.00 0.00 0.00 33 1017.9
20260502150903 55 190 4.0 13.0 0.00 0.00 0.00 33 1017.9
20260502123603 50 204 2.0 8.0 0.00 0.00 0.00 37 1014.5
20260502122703 50 204 3.0 9.0 0.00 0.00 0.00 37 1014.5
20260502121803 50 207 3.0 7.0 0.00 0.00 0.00 37 1014.5
20260502120903 50 206 2.0 7.0 0.00 0.00 0.00 36 1014.5
20260502115403 48 204 3.0 10.0 0.00 0.00 0.00 35 1014.5
20260502114503 46 175 1.0 9.0 0.00 0.00 0.00 36 1014.5
20260502113603 45 13 0.0 3.0 0.00 0.00 0.00 35 1014.5
20260502112703 44 0 0.0 1.0 0.00 0.00 0.00 35 1014.5
20260502111803 44 0 0.0 0.0 0.00 0.00 0.00 36 1014.5
20260502110903 44 0 0.0 0.0 0.00 0.00 0.00 37 1014.5
20260502110024 46 0 0.0 0.0 0.00 0.00 0.00 36 1014.5
20260502105403 47 0 0.0 0.0 0.00 0.00 0.00 34 1014.5
20260502104503 48 13 1.0 4.0 0.00 0.00 0.00 30 1014.5
20260502103603 47 13 1.0 4.0 0.00 0.00 0.00 30 1014.5
20260502102703 47 0 0.0 0.0 0.00 0.00 0.00 30 1014.5
20260502101803 49 0 0.0 0.0 0.00 0.00 0.00 29 1014.5
20260502100903 49 13 0.0 3.0 0.00 0.00 0.00 28 1014.5
20260502090903 50 13 0.0 2.0 0.00 0.00 0.00 30 1014.5
20260502070903 55 0 0.0 0.0 0.00 0.00 0.00 23 1014.5
20260502070003 56 13 0.0 4.0 0.00 0.00 0.00 21 1014.5
20260502065403 56 13 1.0 5.0 0.00 0.00 0.00 21 1014.5
20260502064503 56 13 2.0 5.0 0.00 0.00 0.00 21 1014.5
20260502063603 56 13 0.0 2.0 0.00 0.00 0.00 21 1014.5
20260502062724 56 0 0.0 0.0 0.00 0.00 0.00 21 1014.5
20260502061803 56 13 2.0 5.0 0.00 0.00 0.00 21 1014.5
20260502060903 56 13 0.0 4.0 0.00 0.00 0.00 20 1014.5
20260502060003 57 0 0.0 0.0 0.00 0.00 0.00 20 1014.5
20260502055403 57 13 0.0 4.0 0.00 0.00 0.00 20 1014.5
20260502054503 56 0 0.0 1.0 0.00 0.00 0.00 20 1014.5
20260502053624 56 0 0.0 1.0 0.00 0.00 0.00 21 1014.5
20260502052703 57 0 0.0 0.0 0.00 0.00 0.00 19 1014.5
20260502051824 58 13 0.0 1.0 0.00 0.00 0.00 19 1014.5
20260502050903 58 13 0.0 3.0 0.00 0.00 0.00 19 1014.5
20260502050003 59 13 0.0 3.0 0.00 0.00 0.00 19 1014.5
20260502045403 59 13 0.0 2.0 0.00 0.00 0.00 18 1014.5
20260502044504 59 13 0.0 4.0 0.00 0.00 0.00 18 1014.5
20260502043603 60 13 0.0 3.0 0.00 0.00 0.00 18 1014.5
20260502042703 59 13 0.0 2.0 0.00 0.00 0.00 18 1014.5
20260502041803 59 13 0.0 4.0 0.00 0.00 0.00 18 1014.5
20260502040903 59 0 0.0 1.0 0.00 0.00 0.00 18 1014.5
20260502040003 58 13 0.0 1.0 0.00 0.00 0.00 18 1014.5
20260502033603 58 13 0.0 3.0 0.00 0.00 0.00 20 1003.1
20260502032703 58 13 0.0 5.0 0.00 0.00 0.00 20 1003.1
20260502031803 58 0 0.0 0.0 0.00 0.00 0.00 21 1003.1
20260502030903 59 0 0.0 0.0 0.00 0.00 0.00 21 1003.1
20260502030024 59 0 0.0 0.0 0.00 0.00 0.00 20 1003.1
20260502025403 59 0 0.0 0.0 0.00 0.00 0.00 21 1003.1
20260502024524 60 13 0.0 5.0 0.00 0.00 0.00 20 1003.1
20260502023603 60 0 0.0 0.0 0.00 0.00 0.00 21 1003.1
20260502022703 60 0 0.0 0.0 0.00 0.00 0.00 20 1003.1
20260502021803 61 0 0.0 0.0 0.00 0.00 0.00 19 1003.1
20260502020924 62 0 0.0 0.0 0.00 0.00 0.00 19 1003.1
20260502020003 62 13 0.0 5.0 0.00 0.00 0.00 18 1003.1
20260502015403 63 13 1.0 8.0 0.00 0.00 0.00 18 1003.1
20260502014503 64 15 3.0 11.0 0.00 0.00 0.00 17 1003.1
20260502013603 64 17 3.0 9.0 0.00 0.00 0.00 17 1003.1
20260502012703 65 27 4.0 9.0 0.00 0.00 0.00 17 1003.1
20260502011803 66 16 4.0 10.0 0.00 0.00 0.00 17 1003.1
20260502010903 66 7 3.0 8.0 0.00 0.00 0.00 17 1003.1
20260502010003 67 9 4.0 10.0 0.00 0.00 0.00 17 1003.1
20260502005403 67 6 2.0 8.0 0.00 0.00 0.00 16 1003.1
20260502004503 67 8 2.0 8.0 0.00 0.00 0.00 17 1003.1
20260502003603 68 32 3.0 9.0 0.00 0.00 0.00 15 1003.1
20260502002703 69 61 1.0 6.0 0.00 0.00 0.00 15 1003.1
20260502001803 69 61 1.0 5.0 0.00 0.00 0.00 15 1003.1
20260502000924 68 74 2.0 7.0 0.00 0.00 0.00 15 1003.1
20260502000003 68 98 0.0 7.0 0.00 0.00 0.00 17 1003.1
20260501235403 68 109 0.0 4.0 0.00 0.00 0.00 17 1003.1
20260501234503 67 110 1.0 4.0 0.00 0.00 0.00 16 1003.1
20260501233603 69 0 0.0 0.0 0.00 0.00 0.00 15 1003.1
20260501232703 69 37 0.0 4.0 0.00 0.00 0.00 15 1003.1
20260501231803 70 343 1.0 6.0 0.00 0.00 0.00 15 1003.1
20260501230903 69 360 1.0 6.0 0.00 0.00 0.00 16 1003.1
20260501230003 68 185 1.0 8.0 0.00 0.00 0.00 17 1003.1
20260501225424 69 217 2.0 8.0 0.00 0.00 0.00 16 1003.1
20260501224503 70 356 2.0 8.0 0.00 0.00 0.00 16 1003.1
20260501223603 70 41 2.0 8.0 0.00 0.00 0.00 17 1003.1
20260501222703 70 134 0.0 3.0 0.00 0.00 0.00 16 1003.1
20260501221803 70 9 1.0 5.0 0.00 0.00 0.00 16 1003.1
20260501220903 70 337 2.0 7.0 0.00 0.00 0.00 17 1003.1
20260501220024 68 171 1.0 7.0 0.00 0.00 0.00 18 1003.1
20260501215403 68 88 3.0 11.0 0.00 0.00 0.00 17 1003.1